Wetbulb
59.57 59.32 58.53 58.56 58.88 59.68 59.37 59.23 59.94 60.39 59.44 59.13 59.06 60.39 61.52 61.84 62.09 59.24 55.77 59.76 58.59 62.07 61.34 58.50 59.24 58.15 56.50 53.88 52.04 49.10 41.20 39.31 41.64 44.90 44.93 47.05 45.20 49.33 51.43 52.83 53.74 55.70 54.86 56.34 58.22
59.47 59.27 59.17 58.41 58.84 59.44 59.65 59.70 60.36 60.02 59.38 59.44 59.20 59.55 61.36 61.62 55.70 53.52 60.47 64.04 64.66 62.85 56.58 55.63 54.47 55.93 51.62 51.10 50.25 46.43 40.95 42.17 46.20 45.70 44.75 46.63 46.22 46.41 49.75 50.51 52.59 53.31 56.30 58.21 57.38
59.06 58.95 58.85 58.78 58.77 59.32 59.49 59.57 60.19 59.83 59.69 59.74 59.36 58.93 60.88 59.92 48.34 49.69 61.46 63.59 64.94 62.91 57.74 57.11 56.53 54.52 49.87 50.21 48.83 46.32 42.14 45.96 47.33 49.03 48.63 48.56 47.55 47.85 48.13 47.22 51.96 53.37 55.45 56.85 56.40
58.71 58.73 58.59 58.47 58.61 59.15 59.11 59.24 59.78 59.84 59.80 59.47 59.22 58.96 60.15 54.08 31.65 53.44 61.04 62.10 64.54 58.96 57.19 55.85 53.80 50.71 47.99 47.92 49.71 45.36 49.37 48.87 50.77 51.10 49.71 49.60 48.74 48.40 46.03 51.01 52.23 54.23 57.06 57.10 56.52
58.24 58.05 58.16 58.12 58.28 58.68 58.82 59.53 59.59 59.63 59.22 59.41 59.12 59.03 54.88 46.80 46.55 56.37 60.83 63.14 62.24 56.95 55.65 53.66 51.42 49.30 47.51 46.95 48.47 46.41 48.03 51.20 51.92 51.61 50.88 50.63 49.33 47.93 46.19 50.41 51.28 56.78 57.30 56.96 57.32
57.96 57.61 57.60 57.59 57.72 58.21 58.30 59.36 58.98 58.89 59.08 58.97 58.56 58.93 49.87 40.16 52.60 55.39 56.39 60.04 59.22 55.56 53.98 53.77 51.91 52.34 48.49 47.14 46.32 48.33 48.99 49.48 50.86 51.16 51.14 49.70 50.24 48.63 48.99 48.17 53.10 56.30 56.50 56.98 57.35
57.91 57.44 57.36 57.37 57.58 57.65 57.86 58.56 58.69 58.49 58.80 58.25 58.50 55.05 49.45 44.79 54.55 54.47 57.64 56.32 58.35 55.48 53.10 54.00 54.88 53.28 50.14 46.53 48.73 47.78 45.51 47.40 48.35 49.49 48.92 49.41 46.23 47.38 51.67 46.76 50.57 54.65 56.04 56.90 57.35
57.65 57.18 57.10 57.11 57.30 57.38 57.47 58.06 58.25 57.88 58.38 58.51 58.50 52.21 42.71 52.08 52.25 52.83 54.12 53.20 57.16 57.69 56.48 56.43 54.96 52.37 49.04 50.03 49.03 47.09 46.01 42.60 47.52 49.21 48.53 48.10 41.28 48.28 50.22 47.28 46.12 52.41 54.01 56.04 57.04
57.10 56.77 56.90 56.90 56.90 56.94 57.02 57.39 57.32 58.05 57.78 57.95 52.24 47.56 40.44 55.00 50.08 52.01 53.55 51.50 53.07 54.96 56.62 57.74 55.07 49.30 49.09 45.48 42.65 44.50 39.40 41.39 43.19 49.13 45.86 45.82 41.25 47.77 51.61 49.64 47.91 47.27 53.34 54.75 56.15
56.76 56.57 56.71 56.80 56.64 56.61 56.50 56.74 56.95 55.94 54.34 53.73 51.89 45.10 45.08 44.44 49.22 52.03 52.26 52.09 49.81 52.17 50.34 49.65 47.89 44.48 44.65 42.87 32.85 34.59 39.63 40.23 41.56 45.42 45.50 41.97 41.00 46.40 48.43 47.05 48.49 44.91 51.32 54.03 55.12
56.75 56.56 56.67 56.65 56.54 56.86 54.87 50.75 45.88 44.43 48.05 40.98 42.30 40.35 44.20 48.70 52.27 49.98 50.90 49.96 49.92 47.69 43.79 47.61 42.80 39.03 41.52 43.71 41.89 39.45 39.91 38.12 41.74 46.42 44.93 43.40 43.14 45.11 48.47 47.80 48.60 47.06 45.53 52.60 54.71
56.17 56.45 56.51 56.56 56.61 56.53 51.54 43.69 43.25 43.04 38.84 44.10 43.60 43.84 47.37 50.09 44.50 48.76 51.82 44.86 43.46 40.93 43.95 42.80 38.19 43.37 45.40 44.33 43.25 42.36 39.73 38.94 42.89 45.99 44.76 43.28 42.38 46.20 48.21 47.84 49.05 49.43 45.77 46.73 53.03
55.80 56.22 56.21 56.32 56.10 53.77 47.87 44.89 47.96 45.68 35.25 38.52 42.82 42.75 44.91 46.11 41.85 44.94 49.70 47.00 41.37 38.08 40.68 37.94 38.50 42.82 43.02 42.86 41.96 42.17 40.73 40.88 41.19 44.61 46.02 43.29 41.41 43.68 46.64 48.41 49.61 50.70 49.72 45.95 49.18
55.14 55.56 55.91 56.11 52.15 50.57 45.87 47.89 48.11 41.27 22.84 30.70 37.74 40.67 44.84 43.56 38.14 47.17 50.19 45.17 42.25 39.55 39.82 37.81 41.07 39.62 40.41 39.14 40.70 38.01 43.99 43.13 42.46 40.64 37.45 44.14 34.10 40.64 45.85 45.99 46.73 48.93 49.86 49.38 47.32
53.76 55.11 56.06 55.90 50.49 46.86 47.68 48.73 46.47 39.19 12.30 31.19 36.73 45.27 44.48 38.21 39.17 42.98 47.97 45.78 40.01 38.38 40.96 35.14 38.36 37.16 36.58 37.85 42.58 38.89 44.25 42.55 42.09 39.58 39.14 39.95 37.79 39.61 44.52 42.92 44.79 47.05 48.49 49.50 50.35
52.16 54.91 55.18 54.02 51.29 49.96 50.01 48.33 40.91 24.57 12.97 24.46 36.61 36.83 38.40 37.53 38.10 43.41 45.16 46.30 44.08 40.57 37.74 35.85 40.50 40.05 38.80 40.50 41.06 42.92 42.18 42.34 41.73 38.84 30.23 35.80 37.15 36.41 40.22 42.58 43.94 47.66 48.72 49.10 49.08
51.32 52.70 53.17 53.92 47.12 50.66 48.97 42.78 24.26 18.20 26.30 27.66 30.90 35.72 34.62 34.23 36.22 37.09 37.90 38.32 36.42 31.86 31.69 33.76 35.65 36.32 39.90 39.23 41.17 41.32 37.79 30.31 29.46 29.31 30.33 36.89 35.75 37.77 42.71 44.21 45.91 48.01 49.15 49.27 49.03
50.51 50.92 51.05 53.17 51.02 49.66 45.12 34.06 18.94 19.66 22.19 31.86 32.84 33.74 29.67 33.33 33.26 35.03 33.40 32.39 37.20 34.13 30.66 28.94 26.62 35.70 38.07 37.61 37.18 38.93 38.08 31.69 26.02 27.08 30.35 32.87 33.55 37.35 44.96 48.09 48.45 48.77 49.99 50.91 50.72
49.83 48.82 46.55 50.53 50.22 48.34 37.39 24.82 21.39 24.28 27.46 31.46 32.41 28.66 29.19 31.69 31.04 33.44 32.08 30.81 33.68 36.46 29.20 28.23 28.64 37.08 39.04 38.95 40.30 37.27 34.56 39.46 33.89 28.03 27.91 30.42 32.19 37.23 41.37 43.57 45.66 46.99 48.02 47.02 48.82
45.36 44.60 44.27 50.82 50.01 43.92 32.02 26.76 26.58 30.19 34.16 33.15 23.23 30.16 25.00 29.25 27.43 30.66 31.94 33.54 33.48 37.05 37.67 33.30 28.36 35.19 37.90 39.98 39.63 39.28 40.76 32.50 33.94 25.54 25.10 27.75 28.68 32.54 36.82 40.17 43.89 42.90 45.56 47.95 49.11
42.74 36.69 43.61 46.91 48.00 37.85 27.63 29.11 26.60 31.63 36.66 30.85 27.77 28.16 28.58 28.70 29.97 29.77 29.21 32.70 36.60 36.18 38.17 34.88 34.18 29.49 36.35 34.52 35.80 36.11 35.83 37.22 36.79 34.20 26.49 24.97 29.67 36.00 41.19 43.44 42.25 43.24 44.80 44.11 45.17
36.86 31.22 43.64 45.73 33.60 33.04 29.84 30.45 33.47 33.25 34.11 31.47 31.12 28.30 29.62 30.52 31.14 28.71 28.93 31.38 38.05 37.94 33.40 36.52 34.69 29.42 31.05 36.71 38.26 39.18 37.05 37.35 32.69 30.31 31.34 26.51 30.69 37.14 35.91 37.42 37.47 38.65 40.12 40.95 40.94
32.49 33.86 44.39 42.25 28.66 29.72 32.86 31.49 32.69 33.30 32.03 30.39 30.34 31.61 32.73 31.51 28.20 32.69 33.50 37.89 38.42 36.61 34.55 37.21 32.60 26.18 27.95 33.35 35.56 33.91 37.31 38.47 38.04 33.86 31.28 29.17 31.85 37.12 34.93 34.57 36.49 37.55 39.50 39.68 39.29
33.67 29.00 36.90 38.49 37.32 32.24 30.61 29.83 29.87 34.95 30.66 31.53 30.67 32.84 31.46 31.55 30.83 31.24 32.62 35.26 38.22 38.48 41.69 39.96 34.41 28.33 24.02 26.02 30.70 31.45 34.83 36.91 36.17 31.79 32.24 32.66 35.04 39.14 40.37 37.63 37.55 37.69 38.92 38.50 38.32
32.15 30.89 32.35 29.03 30.41 32.86 32.08 30.29 29.73 28.67 30.91 32.11 29.66 32.48 30.53 28.20 28.45 29.29 33.46 32.07 34.06 39.35 40.27 39.08 30.09 31.57 33.77 34.53 31.47 32.28 31.68 34.42 34.39 35.67 32.31 34.68 35.33 39.48 42.38 43.63 43.61 38.03 38.31 38.03 38.12
30.67 31.01 33.20 32.35 32.77 32.52 33.00 29.59 29.37 28.75 29.49 28.81 29.53 32.02 28.62 29.65 28.63 27.42 31.92 30.07 29.48 33.62 35.25 37.84 30.45 29.59 26.36 31.00 31.06 30.05 32.79 33.24 35.22 35.74 35.87 36.34 35.91 42.92 39.49 42.19 43.60 43.34 37.82 37.40 38.00
35.09 35.59 34.40 34.13 31.88 30.76 30.61 30.99 30.83 31.30 30.96 32.27 31.95 30.93 27.79 29.28 31.93 33.38 33.67 33.48 33.41 32.65 31.69 33.41 31.16 27.98 23.86 29.30 31.29 27.90 31.66 32.64 34.21 36.83 36.12 32.42 37.86 42.30 39.82 38.28 39.67 40.96 39.10 38.45 38.27
MSLP
1015.47 1015.79 1016.18 1016.15 1016.68 1016.86 1017.04 1017.42 1017.67 1017.87 1018.04 1018.29 1018.55 1018.64 1018.59 1018.59 1018.46 1018.47 1018.23 1017.62 1017.75 1017.73 1017.85 1018.12 1018.14 1018.31 1018.60 1019.39 1019.71 1019.50 1020.08 1020.16 1019.81 1019.52 1019.16 1019.11 1018.67 1017.60 1017.45 1017.77 1018.07 1018.38 1018.71 1018.60 1019.27
1014.87 1015.35 1015.79 1015.99 1016.23 1016.51 1016.73 1017.22 1017.34 1017.63 1017.97 1018.08 1018.36 1018.57 1018.56 1018.54 1018.65 1018.33 1017.47 1017.44 1017.68 1017.87 1018.19 1018.48 1018.69 1018.88 1019.63 1020.20 1020.38 1020.35 1020.57 1019.56 1019.35 1019.81 1019.80 1019.82 1019.76 1018.93 1018.30 1018.30 1018.50 1018.63 1018.75 1018.76 1019.47
1014.20 1014.74 1015.20 1015.68 1015.57 1016.04 1016.40 1016.89 1017.09 1017.32 1017.58 1018.17 1018.22 1018.48 1018.67 1018.69 1018.79 1017.67 1017.14 1017.23 1017.45 1017.86 1018.11 1018.62 1018.93 1019.15 1019.98 1020.41 1020.78 1020.76 1020.33 1019.53 1018.77 1018.89 1019.61 1019.72 1019.46 1019.47 1019.17 1018.80 1018.22 1018.17 1018.52 1019.05 1019.53
1013.42 1014.01 1014.29 1015.18 1015.33 1015.65 1016.08 1016.45 1016.87 1017.27 1017.55 1017.77 1018.23 1018.40 1018.40 1018.75 1018.54 1017.08 1017.00 1016.86 1017.34 1018.01 1018.42 1018.95 1019.30 1019.50 1020.09 1020.51 1020.60 1020.84 1019.92 1019.30 1018.78 1018.17 1018.75 1019.39 1019.31 1019.31 1019.21 1018.54 1018.38 1018.27 1018.28 1018.59 1019.28
1012.43 1013.22 1013.72 1014.49 1014.92 1015.21 1015.71 1016.20 1016.45 1016.95 1017.22 1017.64 1018.20 1018.27 1018.59 1018.62 1017.92 1016.98 1016.78 1016.83 1017.39 1018.02 1018.28 1018.87 1019.13 1019.51 1020.00 1020.33 1020.51 1020.29 1019.79 1019.21 1018.79 1018.84 1018.83 1018.84 1018.93 1018.96 1018.76 1018.10 1018.00 1018.17 1018.60 1018.72 1018.66
1011.51 1012.22 1013.00 1013.72 1014.54 1014.94 1015.36 1016.00 1016.20 1016.68 1017.13 1017.59 1017.92 1018.10 1018.69 1018.54 1017.24 1017.10 1016.96 1017.17 1017.35 1017.92 1018.29 1018.61 1018.89 1019.22 1019.64 1020.00 1020.13 1019.55 1019.27 1019.00 1018.78 1018.53 1018.97 1018.69 1017.85 1018.15 1017.69 1017.82 1018.14 1018.45 1018.46 1018.19 1018.17
1010.53 1011.47 1012.29 1013.08 1013.92 1014.52 1015.08 1015.70 1015.99 1016.48 1017.00 1017.39 1017.87 1018.23 1018.42 1017.74 1017.31 1017.07 1016.99 1017.25 1017.35 1017.58 1018.05 1018.27 1018.60 1019.00 1019.49 1020.29 1019.91 1019.84 1019.72 1019.28 1018.95 1018.96 1019.00 1018.78 1018.06 1017.13 1017.04 1017.49 1017.91 1018.21 1018.29 1018.34 1017.66
1009.56 1010.59 1011.43 1012.28 1013.19 1013.98 1014.76 1015.34 1015.84 1016.40 1016.75 1017.25 1017.86 1018.41 1018.07 1017.20 1017.18 1017.19 1017.13 1017.34 1017.47 1017.63 1017.77 1018.03 1018.61 1019.33 1019.89 1020.16 1020.07 1020.02 1019.92 1019.27 1018.12 1018.63 1018.68 1018.87 1016.45 1016.01 1015.84 1016.67 1017.42 1017.71 1018.06 1017.98 1017.67
1008.35 1009.44 1010.51 1011.49 1012.43 1013.40 1014.32 1015.10 1015.92 1016.33 1016.57 1017.07 1018.22 1018.41 1017.83 1017.07 1017.16 1016.86 1017.14 1017.48 1017.76 1018.06 1018.22 1018.28 1018.69 1019.37 1020.02 1020.18 1020.07 1019.40 1018.52 1018.34 1018.30 1017.61 1018.03 1018.31 1016.96 1015.63 1015.41 1016.35 1016.44 1016.94 1017.14 1017.38 1017.11
1006.99 1008.19 1009.47 1010.63 1011.67 1012.83 1014.01 1014.87 1015.83 1016.39 1016.84 1017.62 1017.93 1018.57 1017.55 1017.01 1016.87 1017.03 1017.17 1017.49 1017.95 1018.24 1018.75 1019.06 1019.29 1019.34 1019.58 1019.62 1018.27 1018.84 1018.75 1018.66 1018.02 1017.77 1018.04 1018.02 1016.95 1015.58 1015.65 1015.34 1015.56 1016.02 1016.38 1016.61 1016.57
1006.29 1006.49 1008.20 1009.57 1010.86 1012.12 1013.68 1015.17 1016.51 1017.00 1016.54 1016.15 1016.36 1016.59 1016.30 1016.58 1016.75 1017.12 1017.16 1017.66 1017.81 1018.29 1018.79 1019.26 1019.38 1018.03 1018.44 1018.59 1018.50 1018.67 1018.33 1018.12 1017.72 1017.34 1017.27 1016.69 1016.43 1015.30 1015.01 1014.96 1014.80 1014.52 1014.99 1015.27 1015.45
1005.10 1005.34 1006.53 1008.42 1009.99 1011.23 1012.49 1013.00 1013.18 1013.41 1015.92 1016.34 1016.42 1016.50 1016.45 1016.32 1016.74 1017.19 1017.33 1017.75 1017.99 1018.27 1019.00 1019.59 1017.70 1017.97 1018.39 1018.60 1018.58 1018.52 1018.34 1017.73 1017.61 1017.14 1017.20 1016.32 1015.13 1014.86 1014.47 1013.54 1013.39 1013.04 1013.20 1013.59 1013.86
1004.17 1005.06 1004.80 1007.15 1009.07 1010.53 1011.11 1011.68 1012.82 1012.94 1015.43 1016.36 1016.61 1016.49 1016.47 1016.52 1016.60 1016.80 1017.20 1017.31 1017.63 1018.46 1018.65 1018.54 1017.55 1017.55 1018.34 1018.32 1018.30 1017.72 1017.64 1017.88 1017.77 1017.20 1016.49 1016.42 1014.74 1013.99 1012.85 1012.47 1012.09 1011.90 1011.85 1011.90 1012.13
1003.17 1003.92 1004.26 1006.16 1008.50 1009.01 1010.40 1011.96 1012.31 1012.86 1015.01 1015.98 1016.12 1015.62 1016.06 1016.24 1016.57 1016.37 1016.68 1016.81 1017.50 1017.99 1018.86 1018.78 1018.27 1018.11 1018.37 1017.85 1018.20 1017.48 1017.57 1017.76 1017.63 1017.72 1016.27 1015.86 1012.39 1012.48 1011.66 1010.78 1010.68 1010.54 1010.64 1010.64 1010.68
1002.08 1002.74 1003.72 1003.94 1005.25 1007.26 1008.98 1011.35 1012.18 1013.28 1014.92 1014.58 1014.88 1014.30 1014.89 1015.83 1016.14 1016.67 1016.57 1016.54 1016.98 1017.88 1018.34 1017.88 1018.08 1018.29 1017.97 1017.01 1017.94 1016.98 1017.76 1017.71 1017.80 1017.30 1016.75 1016.01 1014.32 1010.22 1010.61 1009.04 1009.18 1009.05 1009.04 1008.84 1008.88
1001.30 1001.65 1002.11 1003.48 1004.54 1005.65 1008.63 1010.58 1012.43 1014.30 1013.60 1013.77 1013.86 1014.15 1014.99 1015.38 1016.14 1016.56 1016.78 1016.82 1017.26 1017.88 1018.18 1018.27 1018.38 1018.22 1017.45 1017.33 1017.56 1017.57 1017.62 1017.68 1017.42 1017.12 1015.97 1015.40 1013.97 1009.89 1008.91 1007.69 1008.22 1007.59 1007.30 1007.06 1007.31
1000.58 1000.49 1001.35 1001.90 1002.22 1004.73 1007.66 1010.06 1012.17 1012.54 1012.52 1013.36 1013.17 1013.44 1013.94 1014.84 1015.98 1015.99 1016.37 1016.54 1016.66 1017.70 1017.97 1018.67 1018.45 1018.32 1017.95 1017.60 1017.59 1017.65 1018.06 1017.71 1017.34 1016.26 1014.46 1013.35 1013.09 1008.83 1007.74 1007.09 1006.61 1006.43 1006.09 1005.91 1005.94
1000.14 1000.64 1000.79 1000.73 1000.91 1003.76 1006.14 1008.62 1009.43 1010.72 1011.20 1011.32 1012.08 1013.48 1014.10 1014.65 1015.52 1015.62 1016.34 1016.65 1016.46 1016.43 1017.04 1017.96 1018.05 1017.67 1017.22 1016.61 1016.96 1017.26 1017.48 1016.87 1016.25 1015.79 1013.72 1013.12 1010.99 1007.23 1006.67 1005.90 1006.01 1005.51 1004.90 1004.95 1005.29
999.62 1000.35 1000.23 999.85 1000.75 1002.88 1005.47 1006.21 1006.35 1007.40 1008.76 1009.91 1012.06 1013.09 1013.91 1014.18 1014.29 1015.24 1015.26 1014.99 1014.99 1015.30 1016.10 1016.71 1017.01 1016.68 1016.55 1016.32 1016.89 1016.65 1016.30 1015.85 1016.23 1015.83 1014.40 1012.72 1009.30 1007.67 1006.70 1005.77 1005.60 1005.05 1004.78 1004.41 1004.26
999.29 999.02 999.18 1000.12 1000.67 1001.40 1005.08 1004.56 1005.30 1006.38 1006.82 1008.72 1009.92 1011.02 1011.73 1012.72 1013.54 1013.86 1014.39 1013.45 1014.03 1014.29 1014.85 1015.51 1016.16 1016.31 1016.47 1016.77 1016.65 1015.85 1015.61 1016.40 1016.17 1015.43 1013.99 1011.37 1009.29 1007.09 1006.52 1005.97 1005.23 1004.43 1004.10 1003.29 1003.36
998.75 998.84 999.83 1000.28 1001.59 1002.23 1002.21 1004.19 1005.11 1006.18 1005.39 1007.10 1008.39 1009.88 1010.88 1011.33 1012.18 1013.04 1012.87 1012.82 1013.01 1013.60 1014.67 1015.16 1015.97 1016.84 1016.74 1016.01 1015.37 1015.74 1015.15 1014.96 1014.60 1014.37 1013.19 1011.13 1007.65 1005.82 1005.04 1004.55 1004.05 1003.49 1003.17 1003.41 1003.15
998.29 999.15 999.67 1000.82 1000.38 1001.52 1002.42 1002.86 1003.81 1005.40 1005.58 1006.64 1007.35 1008.53 1009.51 1010.82 1011.71 1012.30 1011.99 1011.93 1011.89 1012.68 1013.51 1014.28 1015.78 1016.08 1015.91 1015.84 1015.48 1014.98 1014.55 1014.47 1013.97 1013.34 1012.55 1010.96 1005.70 1005.27 1005.15 1004.05 1004.02 1003.54 1003.15 1002.68 1002.43
998.16 999.37 999.74 1000.00 1000.04 1001.50 1002.59 1003.32 1003.53 1004.37 1005.22 1006.47 1006.90 1007.49 1008.67 1010.13 1011.36 1011.34 1011.58 1011.64 1011.58 1012.35 1012.95 1014.20 1014.87 1015.57 1015.88 1016.14 1015.48 1014.53 1013.73 1013.29 1012.96 1012.62 1010.75 1009.83 1004.46 1004.37 1004.66 1004.27 1003.79 1003.83 1003.51 1002.80 1002.28
998.05 998.98 999.14 1000.00 999.62 1001.12 1001.82 1003.24 1003.64 1004.19 1005.42 1005.86 1006.73 1007.24 1008.70 1010.09 1010.36 1010.79 1011.53 1011.75 1011.95 1012.36 1012.81 1013.50 1014.15 1014.09 1013.84 1014.38 1013.77 1014.04 1013.52 1013.33 1013.08 1011.62 1009.41 1008.12 1004.92 1004.75 1004.24 1004.12 1003.24 1003.55 1003.42 1003.03 1002.76
997.76 998.15 997.98 998.49 999.71 1001.08 1001.63 1002.70 1002.73 1004.28 1004.85 1005.56 1007.02 1006.49 1007.46 1009.61 1010.46 1010.66 1011.09 1011.95 1012.31 1012.39 1013.00 1013.36 1013.80 1014.33 1014.26 1014.17 1014.20 1013.64 1012.97 1012.15 1011.86 1010.35 1010.10 1005.75 1004.84 1004.45 1003.93 1003.86 1003.69 1003.42 1003.29 1002.95 1003.31
998.20 999.02 998.66 998.76 999.62 1000.68 1001.50 1002.17 1002.35 1003.70 1004.31 1005.23 1005.85 1006.76 1007.27 1007.90 1008.84 1010.12 1010.89 1011.75 1011.90 1012.76 1013.06 1013.54 1014.10 1014.66 1014.41 1014.00 1013.39 1012.87 1011.70 1011.32 1010.20 1008.47 1008.47 1005.10 1003.22 1003.55 1003.52 1003.17 1003.17 1002.67 1003.01 1002.94 1003.08
998.22 998.88 998.74 998.67 999.83 1000.11 1000.67 1001.28 1001.83 1003.17 1004.37 1004.67 1006.07 1006.91 1007.91 1008.57 1009.29 1009.98 1010.84 1011.27 1011.53 1012.31 1013.26 1014.15 1014.83 1015.58 1014.86 1013.89 1013.07 1011.69 1009.24 1009.30 1008.26 1007.55 1006.18 1005.19 1001.37 1002.39 1002.83 1002.08 1002.23 1002.38 1001.90 1001.85 1002.19
Wind_Speed
19 18 17 15 14 14 14 12 12 10 7 5 4 3 1 0 2 1 5 6 4 6 4 1 5 3 4 4 6 2 3 4 3 2 2 8 8 5 2 6 2 2 5 3 16
21 20 18 18 15 13 15 15 12 11 9 7 5 2 2 2 0 6 6 4 3 9 4 3 3 3 4 3 3 4 4 10 6 2 2 4 5 9 2 2 3 2 2 11 17
22 21 20 18 17 14 15 14 14 12 10 8 6 3 5 4 1 7 8 15 7 7 4 2 3 3 4 2 3 5 6 5 8 8 4 4 6 7 7 4 7 12 10 15 14
25 22 21 20 18 16 15 13 15 14 11 8 6 4 6 1 7 3 4 7 10 6 5 6 3 5 5 6 4 3 6 5 4 6 5 2 5 9 4 8 9 9 10 17 18
26 24 22 21 19 17 15 14 17 15 12 9 7 6 3 2 8 4 3 2 9 8 8 6 4 4 6 5 6 5 4 5 5 1 4 6 5 5 10 14 8 6 9 18 19
27 25 23 22 21 19 17 15 16 16 13 11 9 6 3 6 3 2 2 7 6 9 5 6 7 5 4 4 5 6 7 5 7 7 6 8 9 5 8 5 4 8 14 19 19
28 26 25 24 22 20 17 16 13 15 14 12 10 4 3 12 1 4 4 2 5 8 7 4 3 5 7 2 3 2 2 5 7 5 6 3 13 11 14 4 9 11 12 13 18
30 28 27 25 24 22 19 16 14 15 14 12 12 4 7 4 5 4 1 3 4 4 3 5 4 4 1 1 2 3 2 12 8 10 5 7 20 9 12 6 10 11 10 13 16
33 30 28 27 25 23 20 17 14 15 15 12 6 4 7 3 3 4 5 6 6 4 4 3 4 4 2 4 3 8 13 17 7 12 5 12 7 13 10 8 15 9 12 15 16
35 33 31 29 27 25 22 17 15 12 6 4 2 4 4 6 4 5 2 7 5 6 3 4 3 5 7 10 17 6 10 9 11 7 10 10 14 17 5 9 14 9 10 13 15
31 36 33 32 30 28 21 10 8 4 10 6 10 4 4 2 5 3 5 6 4 4 8 5 9 18 20 22 11 6 9 12 7 8 11 19 19 21 17 12 15 11 12 13 15
31 35 37 34 33 32 20 11 19 9 10 3 2 1 2 4 7 7 9 7 7 9 6 4 21 10 5 9 15 16 15 14 9 9 14 14 22 23 18 19 19 19 15 16 15
31 31 39 36 35 27 23 22 12 11 7 6 4 7 4 4 5 13 12 5 9 10 12 16 1 13 12 10 13 14 16 17 13 5 13 1 20 14 15 19 17 20 15 15 18
32 35 36 38 30 21 23 16 11 4 7 6 11 8 6 7 3 5 12 5 4 15 12 10 12 14 5 18 13 15 13 12 11 11 11 14 20 17 20 21 19 24 19 19 17
23 36 38 42 22 24 24 14 10 6 5 8 9 6 12 9 8 6 3 3 9 8 6 6 6 10 19 18 7 14 6 12 18 15 18 14 11 14 14 19 18 21 20 20 22
27 37 35 33 21 28 25 18 7 6 10 7 8 13 16 10 4 6 10 3 1 6 4 4 2 3 6 6 15 4 4 7 13 13 11 14 10 10 15 17 8 18 20 20 20
25 25 25 24 21 29 25 16 8 8 3 10 12 16 18 17 9 7 13 13 9 10 12 2 10 2 3 3 2 10 11 10 6 5 10 8 14 23 8 7 11 17 18 18 21
23 17 13 15 22 30 20 15 10 11 10 5 13 19 11 13 11 10 12 14 19 6 6 13 8 12 8 19 4 13 18 6 11 10 13 2 14 9 11 19 17 14 13 14 18
20 11 6 6 28 25 19 19 15 19 12 15 18 20 10 11 8 10 16 16 15 20 14 11 13 2 2 3 14 8 16 16 11 0 2 5 9 7 10 13 12 17 15 18 16
11 9 8 9 26 24 20 16 5 9 18 21 8 12 16 24 10 16 19 14 11 26 12 3 3 2 5 3 4 15 5 6 8 9 9 9 9 12 5 9 14 14 18 20 16
5 4 4 9 16 19 24 17 7 8 22 10 9 12 13 23 14 18 13 4 21 17 21 4 4 1 2 10 15 5 9 5 3 5 8 18 14 7 20 20 11 11 14 9 9
3 6 9 12 11 11 24 10 11 17 4 5 8 7 14 21 13 17 15 8 12 15 24 18 3 7 10 1 4 9 9 14 8 12 6 4 18 3 9 6 6 14 13 8 8
4 3 10 14 12 16 17 2 6 21 8 4 6 4 5 16 8 14 16 7 11 16 16 13 7 5 2 3 4 9 14 12 18 1 13 10 16 5 6 8 8 10 12 9 5
3 5 7 11 6 18 19 8 9 7 3 6 7 7 11 14 4 14 12 4 7 9 10 19 6 9 13 2 1 9 13 17 18 11 17 20 28 19 14 11 10 7 10 8 7
1 2 3 11 12 20 17 16 21 10 2 6 4 14 14 8 4 4 6 4 3 9 12 9 5 5 9 15 6 9 12 22 21 28 18 36 30 26 24 20 17 9 7 7 8
4 2 1 11 14 22 22 22 27 6 9 11 13 14 5 12 8 10 11 5 5 3 7 4 4 5 13 9 14 19 18 20 28 34 26 38 35 22 6 9 15 23 9 10 10
2 3 1 14 18 15 15 22 24 13 7 11 16 13 7 8 9 8 5 7 8 9 6 7 5 4 8 3 8 14 24 23 28 28 27 32 39 21 18 13 15 17 16 14 13
Wind_Direction
217 216 216 220 218 212 198 210 206 181 180 200 233 241 210 307 141 281 218 215 187 152 85 121 31 62 54 66 25 15 73 144 239 186 292 355 0 349 3 121 189 187 168 227 133
214 213 213 212 213 218 203 206 204 177 182 201 230 257 186 180 75 237 243 262 241 170 105 137 140 94 60 63 48 100 190 187 146 134 345 289 349 324 302 157 256 269 301 135 143
213 209 208 212 206 208 196 205 193 176 177 196 210 231 191 172 45 239 237 234 197 181 131 141 111 116 105 121 185 154 197 208 185 145 165 305 346 331 329 246 227 203 172 161 162
211 207 201 205 205 202 202 206 193 177 178 185 199 206 193 145 217 190 257 252 197 144 112 124 128 151 149 172 177 178 258 213 287 154 144 301 302 330 255 265 339 281 166 162 174
206 204 199 200 201 199 198 203 191 174 174 181 185 194 149 203 251 232 346 52 145 166 159 149 137 131 183 188 146 196 202 230 269 291 261 145 234 218 269 282 287 155 166 186 190
204 201 196 194 197 195 193 195 186 174 173 179 179 203 141 198 240 239 234 146 163 172 176 144 174 192 156 185 195 198 206 212 227 226 253 241 247 109 264 316 260 181 199 194 198
202 197 192 189 190 192 189 185 178 176 176 177 180 126 219 227 122 46 94 114 170 174 163 186 140 181 137 142 234 257 216 256 231 198 243 123 257 216 254 220 241 213 215 217 211
200 196 190 187 186 187 186 179 179 183 178 173 167 160 231 242 226 314 19 62 106 68 83 122 132 112 174 140 68 169 215 244 195 189 209 181 259 194 211 195 252 236 223 217 221
201 194 189 185 182 179 179 174 179 177 175 163 156 195 237 99 182 203 175 140 105 59 63 69 140 174 102 205 211 202 240 229 251 195 140 195 262 238 233 222 249 236 220 219 228
201 192 188 182 177 172 170 162 168 171 144 98 259 164 219 208 191 160 112 138 118 122 127 155 197 204 203 200 222 237 226 252 241 194 201 223 251 265 244 196 230 230 236 226 224
215 185 187 179 174 165 153 138 147 194 192 189 174 212 128 137 118 109 132 96 116 115 182 188 205 222 218 220 232 270 219 234 236 217 203 223 248 252 241 236 253 230 228 219 222
207 196 181 177 171 165 158 184 177 151 178 236 11 235 183 170 153 167 155 146 163 183 158 182 230 223 226 227 230 242 255 255 260 212 216 237 252 247 243 231 230 233 222 225 224
211 207 182 173 171 166 179 183 157 130 127 227 181 190 192 156 183 177 172 139 167 191 195 220 285 197 214 242 238 236 230 236 249 271 222 301 258 247 245 237 238 248 237 219 220
212 202 190 174 170 170 188 174 164 106 91 210 189 238 175 153 236 166 189 145 159 198 204 238 242 262 216 233 230 252 223 257 277 256 252 185 265 238 240 235 224 241 229 229 225
218 202 195 175 168 176 168 170 141 56 168 189 171 176 153 165 133 204 214 73 175 181 165 211 182 216 243 235 195 266 215 239 257 281 267 238 262 260 216 240 221 230 226 220 220
217 205 200 187 177 169 153 156 113 106 218 166 140 167 159 175 155 132 169 107 90 175 223 237 318 214 240 204 220 305 225 256 251 245 245 230 244 218 227 238 230 233 228 219 219
208 217 194 197 176 157 151 152 145 183 238 169 175 173 171 180 159 153 181 174 178 188 211 69 238 211 241 186 193 195 225 245 243 210 253 214 219 245 248 244 216 231 227 220 218
205 192 221 186 145 156 153 166 168 188 189 135 149 160 168 145 198 168 152 201 215 204 165 213 250 184 180 215 201 212 215 227 248 231 241 125 237 251 221 240 232 238 234 229 222
197 192 242 176 156 149 159 189 172 172 163 140 127 160 174 188 147 159 189 198 203 204 189 197 237 185 288 135 189 190 219 238 279 354 269 240 285 275 238 245 240 239 236 232 228
196 183 194 162 158 154 164 181 167 182 128 141 136 173 177 178 146 186 178 204 207 199 202 224 265 189 157 126 242 223 148 186 197 257 253 251 253 241 310 257 245 249 246 242 228
180 139 181 127 164 169 173 179 133 214 144 144 144 153 176 178 180 187 192 255 190 183 204 144 224 135 114 209 198 168 209 209 229 210 245 262 265 213 216 239 264 268 267 272 237
122 164 172 150 164 186 172 143 138 175 100 114 100 112 168 170 170 184 201 195 185 156 190 201 197 230 204 7 309 249 231 212 217 214 224 267 256 249 248 271 265 268 262 246 231
121 97 179 158 183 182 163 159 122 162 145 149 115 136 149 162 157 184 188 196 163 174 176 164 207 235 258 235 212 224 215 217 227 334 219 231 254 191 269 271 247 273 287 265 246
126 150 167 175 191 169 157 165 134 143 82 98 111 116 113 160 11 174 165 153 165 176 161 164 186 213 222 160 141 206 212 223 238 254 256 249 261 283 284 299 298 273 283 291 226
98 161 285 164 168 174 169 162 151 154 125 135 16 168 147 140 88 149 110 113 170 194 194 187 214 203 251 280 310 266 250 217 213 232 230 252 245 251 252 260 276 275 279 270 259
124 172 160 149 143 161 183 179 166 113 148 169 156 152 100 152 157 160 140 169 178 128 152 165 223 185 271 243 233 268 262 242 224 230 234 250 260 244 286 282 253 266 252 242 252
113 198 127 159 165 155 181 176 170 138 18 113 133 130 87 141 145 152 126 129 149 140 152 159 169 193 261 231 262 251 242 232 234 232 224 244 244 261 240 230 235 249 248 235 233